641  
ASUS41 KAKQ 310716  
RWRAKQ  
 
REGIONAL WEATHER ROUNDUP  
NATIONAL WEATHER SERVICE WAKEFIELD VA  
300 AM EDT SUN MAY 31 2020  
 
NOTE: "FAIR" INDICATES FEW OR NO CLOUDS BELOW 12,000 FEET WITH NO  
SIGNIFICANT WEATHER AND/OR S TO VISIBILITY
. * = DENOTES  
STATION MAY NOT REPORT PRECIPITATION (E.G., RAIN,SNOW,ETC.),
 
THUNDER OR FOG.  
 
VAZ042-051-052>054-056-310800-  
NORTHERN VIRGINIA  
 
CITY SKY/WX TMP DP RH WIND PRES REMARKS
 
WASH NATIONAL PTCLDY 66 44 45 N18G24 30.04R  
DULLES MOCLDY 63 41 44 NW9 30.06R  
FORT BELVOIR PTCLDY 66 44 44 NW9G18 30.04R  
QUANTICO MOCLDY 67 43 41 N14 30.05R  
FREDERICKSBRG* CLOUDY 68 51 55 N7G16 30.04R  
STAFFORD* CLOUDY 66 49 53 N12 30.08S  
WARRENTON CLOUDY 64 40 40 N6 30.07R  
CULPEPER* MOCLDY 64 46 51 N7G16 30.08R  
MANASSAS* MOCLDY 63 45 51 N12 30.06S  
LEESBURG* CLEAR 61 43 51 N15G21 30.08R  
WINCHESTER CLEAR 55 41 58 NW5 30.08S  
FRONT ROYAL* FAIR 57 45 62 E3 30.09R  
LURAY* FAIR 59 46 63 N5 30.09R  

 
 
VAZ048-049-060>072-079>083-310800-  
CENTRAL AND SOUTH CENTRAL VIRGINIA  
 
CITY SKY/WX TMP DP RH WIND PRES REMARKS
 
RICHMOND PTCLDY 67 53 61 N14 30.01R  
CHESTERFIELD* FAIR 68 53 58 N8 30.01S  
PETERSBURG* PTCLDY 66 58 74 N6 30.02R  
HANOVER CLEAR 68 50 52 VRB7 30.03R  
TAPPAHANNOCK* CLEAR 68 55 63 NW8 30.02R  
QUINTON* FAIR 66 55 68 N3 29.99S  
CHARLOTTSVILLE CLOUDY 68 51 54 N5 30.05R  
GORDONSVILLE* PTSUNNY 65 50 57 N8G20 30.05R  
ORANGE* MOCLDY 63 46 55 N12 30.06R  
LOUISA* MOCLDY 65 50 56 N8G17 30.09R  
BUMPASS* PTSUNNY 66 48 51 N6 30.04R  
FARMVILLE* MOCLDY 65 62 91 CALM 30.02R  
CREWE* CLOUDY 66 64 91 CALM 30.01S  
FORT PICKETT* CLOUDY 66 66 100 NE7 30.02R  
CHASE CITY* FAIR 64 64 99 N3 30.01R  
CLARKSVILLE* FAIR 64 64 100 CALM 29.99S  
SOUTH HILL* PTCLDY 65 63 93 N3 30.04S  
LAWRENCEVILLE* PTSUNNY 66 65 97 N3 30.01R  
EMPORIA* N/A 63 63 100 NW8 30.00R  

 
 
VAZ088>098-310800-  
SOUTHEAST VIRGINIA  
 
CITY SKY/WX TMP DP RH WIND PRES REMARKS
 
NORFOLK PTCLDY 64 62 93 SW3 29.95R  
VIRGINIA BEACH PTCLDY 62 61 96 CALM 29.94R FOG  
NORFOLK NAVAL MOCLDY 69 65 86 W3 29.96R  
WEST POINT* PTCLDY 64 60 86 CALM 30.00R  
SALUDA* PTSUNNY 68 59 72 N13G20 29.98R  
NEWPORT NEWS CLEAR 68 62 81 NW7 29.96R  
LANGLEY AFB CLEAR 67 67 100 NW8 29.97R  
FORT EUSTIS CLEAR 68 64 87 NW9 29.95R  
WILLIAMSBURG* CLEAR 66 63 88 N8 29.99R  
HR EXEC AP* CLOUDY N/A N/A N/A CALM 29.97R FOG  
FRANKLIN* CLOUDY 62 62 98 N7 29.98R  
US460-WAKEFLD MOCLDY 67 64 90 N5 29.98R  

 
 
VAZ020-022-025-037-045-310800-  
WEST CENTRAL AND SOUTHWEST VIRGINIA  
 
CITY SKY/WX TMP DP RH WIND PRES REMARKS
 
STAUNTON* CLEAR 57 49 74 NE5 30.11R  
WAYNESBORO* FAIR 60 50 69 N7 30.09R  
HOT SPRINGS VA CLEAR 51 45 80 NW8 30.15R  
LYNCHBURG CLEAR 68 53 58 VRB6 30.05R  
DANVILLE CLOUDY 68 54 60 N6 30.02R  
SOUTH BOSTON* FAIR 62 53 74 N3 30.01R  
MARTINSVILLE MOCLDY 58 57 94 CALM 30.07R  
ROANOKE CLEAR 66 52 60 SW3 30.08S  
BLACKSBURG CLEAR 60 55 83 NW9 30.14F  
DUBLIN* CLEAR 61 53 73 CALM 30.13S  
MARION* CLOUDY 58 57 97 CALM 30.17S  
HILLSVILLE* CLEAR 59 52 78 N8 30.12R  
RICHLANDS* FAIR N/A N/A N/A N3 30.16F  
WISE* CLEAR 57 46 67 N6 30.17F  
ABINGDON* PTCLDY 60 50 69 E6 30.13S  

 
 
MDZ021>025-VAZ099-100-310800-  
SOUTHERN MARYLAND AND THE DELMARVA PENINSULA  
 
CITY SKY/WX TMP DP RH WIND PRES REMARKS
 
PATUXENT RIVER CLOUDY 69 51 52 N16 30.00R  
BAY BRIDGE APT NOT AVBL  
LEONARDTOWN NOT AVBL  
DOVER CLEAR 66 49 54 NW13 29.97R  
GEORGETOWN CLEAR 65 55 70 CALM 29.97R  
EASTON NOT AVBL  
CAMBRIDGE NOT AVBL  
SALISBURY PTCLDY 64 55 72 NW6 29.97R  
TANGIER FAIR 72 60 65 N17 29.97  
OCEAN CITY CLEAR 62 59 90 N8 29.96R  
WALLOPS ISLAND CLEAR 65 59 81 N9 29.96R  
ACCOMACK* CLEAR 67 62 84 N10 29.96R  

 
 
NCZ012>017-030>032-310800-  
NORTH CENTRAL AND EASTERN NORTH CAROLINA  
 
CITY SKY/WX TMP DP RH WIND PRES REMARKS
 
ROANOKE RAPIDS PTSUNNY 63 63 100 NW3 29.98R  
RALEIGH PTCLDY 67 62 84 N5 29.98S  
ELIZABETH CITY MOCLDY 69 67 93 NW5 29.94R  
AHOSKIE* MOCLDY 64 64 100 CALM 29.97R FOG  
EDENTON* NOT AVBL  
CURRITUCK* MOCLDY 66 66 100 CALM 29.93S FOG  
KILL DEVIL HLS PTCLDY 66 66 100 CALM 29.92F FOG  
MANTEO MOCLDY 67 66 95 CALM 29.93F  
CAPE HATTERAS PTCLDY 74 69 85 VRB5 29.91F  
TARBORO* CLOUDY 68 68 99 N5 29.96S  
GOLDSBORO CLEAR 69 68 97 CALM 29.93S  
WASHINGTON CLOUDY 69 67 96 N3 29.95S  
GREENVILLE PTCLDY 68 68 100 CALM 29.97S  
NEW BERN PTCLDY 69 67 93 N6 29.93F  
WILMINGTON PTCLDY 71 71 100 NW7 29.92F  

 
 
VAZ048-310800-  
ELSEWHERE  
 
CITY SKY/WX TMP DP RH WIND PRES REMARKS
 
HARRISBURG PA CLEAR 58 41 53 NW10 30.05R  
BALTIMORE PTCLDY 64 41 42 NW10G20 30.02S  
ANNAPOLIS PTCLDY 68 48 48 NW15 30.01R  
ANDREWS AFB NOT AVBL  
PHILADELPHIA PTCLDY 65 45 48 NW10 29.99R  
HENDERSON NC CLEAR 63 63 99 CALM 30.00S  
GREENSBORO CLOUDY 66 55 67 N5 30.03R  
ROCKY MOUNT CLOUDY 70 69 97 N6 29.97R  

 
 
VAZ100-310800-  
MARINE  
 
STATION/POSITION TIME TEMP WIND PRES WAVE SWELL
 
AIR SEA DIR/SP/G HT/PER HT/PER  
(UTC) (F) (DEG/KT/KT) (MB) (FT/S) (FT/S)  
CAPE MAY NJ 0630 68 66 CALM / 5 1013.9S  
LEWES DE 0630 68 67 330/ 15/ 17 1014.6S  
15NM E FENWICK I 0650 67 1008.7S 3/ 7  
OCEAN-CITY-INLET 0618 66 62 340/ 10/ 14 1014.9  
WACHAPREAGUE VA 0630 68 75 310/ 3/ 8 1013.9R  
THOMAS POINT MD 0700 67 69 320/ 15/ 17 1017.1R  
GOOSES REEF MD 0654 69 320/ 17/ 21 938.5F  
COVE POINT MD 0630 330/ 22/ 26 1015.9R  
SOLOMONS ISLAND 0630 69 68 340/ 12/ 15 1015.3R  
BISHOPS HEAD MD 0630 69 75 350/ 8/ 11 1014.8R  
PINEY POINT MD 0630 340/ 10/ 12 N/A  
POTOMAC MD 0654 66 340/ 14/ 17 1015.4R  
CAMBRIDGE MD 0630 71 72 340/ 15/ 19 1015.0R  
LEWISETTA VA 0630 71 72 360/ 11/ 15 1015.5R  
RAPPAHANNOCK LGT 0630 320/ 20/ 22 1015.1R  
STINGRAY PT 0642 71 320/ 16/ 17 1018.2R  
YORK RVR RNG VA 0630 70 340/ 15/ 18 1015.2R  
YORKTOWN VA 0630 69 70 300/ 11/ 13 1014.2R  
DOMINION TERM VA 0618 71 340/ 7/ 9 1014.3  
KIPTOPEKE VA 0618 69 350/ 7/ 8 N/A  
CAPE HENRY VA 0630 69 270/ 5/ 5 1014.2R  
WILLOUBY STN VA 0630 69 310/ 6/ 6 1013.7R  
S CRANEY ISL VA 0630 70 310/ 6/ 9 1013.8R  
CAPE HENRY BUOY 0630 69 N/A 3/ 7  
1ST LANDING BUOY 0650 340/ 10/ 12 1013.6R  
64NM E OF VA BCH 0650 61 60 350/ 4/ 6 1013.4R 3/ 8 3/ 8  
DUCK PIER NC 0630 67 360/ 2/ 3 1013.0F  
44100 DUCK FRF 0700 66 N/A 3/ 8  
44056 DUCK FRF 0700 64 N/A 2/ 8  
OREGON INLET NC 0618 69 78 20/ 4/ 7 1013.2  
HATTERAS NC 0630 72 76 360/ 10/ 11 1013.2F  
DIAMOND SHLS NC 0650 74 79 320/ 14/ 17 1012.0 4/ 8 3/ 8  
CAPE LOOKOUT NC 0600 75 270/ 13/ 15 1013.5S  

 
 
 
CLICK HERE TO GO TO PREVIOUS BULLETINS.

The Nexlab VA Page
The Nexlab NC Page
The Nexlab MD Page Main Text Page